Content
SEND FEEDBACK

Daily
Averages
Monthly
Summary
United States of America

EAGLE RIVER, WISCONSIN


Home > North America > United States > Wisconsin
Elevation: 1630 feet     Latitude: 45 54N     Longitude: 089 19W

WEATHER
 
SELECT A DAY
Number of Records: 343,044;   Date Range: 12/9/96 - 10/23/14
 
SHARE

PRINT THIS DATA

[ ← Previous Day ]
WEATHER ALMANAC - FEBRUARY 5, 2013
[ Next Day → ]
[ °C ]   °F
Weather ElementAverageHighLow
Temperature10.8 °F19.4 °F (12:35 pm)-2.2 °F (9:55 pm)
Dewpoint5.2 °F12.2 °F (1:15 pm)-5.8 °F (12:35 am)
Humidity78.6 %92 % (6:35 am)61 % (1:15 am)
Barometer29.74 in29.98 in (11:35 pm)29.58 in (4:55 am)
Wind Speed6.3 mph12.7 mph (2:55 pm)
Wind Gust18.4 mph (4:15 pm)
Weather ElementAverage
Visibility5.6 mi
Wind DirectionWSW (239.6 °)

Weather ElementTotal
Precipitation---
Heating Degree Days56.4 (Base 65)
Averaged from 68 records on February 5, 2013
WEATHER CONDITIONS BREAKOUT
WIND DIRECTION BREAKOUT
WEATHER BY HOUR - FEBRUARY 5, 2013
[ °C ]   °F
Local TimeTemperatureDewpointHumidityBarometerVisibilityWind DirectionWind SpeedGust SpeedPrecipitationEventsConditions
12:35 AM1.4 °F-5.8 °F72 %29.73 in10.0 miCalmOvercast
12:55 AM3.2 °F-5.8 °F66 %29.73 in10.0 miCalmOvercast
1:15 AM5.0 °F-5.8 °F61 %29.72 in10.0 miCalmOvercast
1:35 AM5.0 °F-4.0 °F66 %29.71 in10.0 miSouth (180°)4.6 mphOvercast
1:55 AM5.0 °F-4.0 °F66 %29.69 in5.0 miSouth (180°)3.5 mphSnowLight Snow
2:15 AM5.0 °F-0.4 °F78 %29.68 in1.0 miSSW (210°)4.6 mphSnowSnow
2:35 AM6.8 °F1.4 °F79 %29.66 in0.8 miSSW (200°)5.8 mphSnowSnow
2:55 AM8.6 °F3.2 °F79 %29.64 in1.0 miSSW (210°)5.8 mphSnowSnow
3:15 AM8.6 °F3.2 °F79 %29.63 in1.0 miSSW (210°)8.1 mphSnowSnow
3:55 AM10.4 °F5.0 °F79 %29.62 in1.2 miSW (220°)6.9 mphSnowLight Snow
4:15 AM10.4 °F5.0 °F79 %29.61 in1.2 miSW (220°)9.2 mphSnowLight Snow
4:35 AM10.4 °F5.0 °F79 %29.60 in5.0 miSSW (210°)8.1 mphSnowLight Snow
4:55 AM10.4 °F5.0 °F79 %29.58 in2.0 miSSW (210°)6.9 mphSnowLight Snow
5:15 AM10.4 °F6.8 °F85 %29.58 in1.5 miSW (220°)9.2 mphSnowLight Snow
6:15 AM12.2 °F6.8 °F79 %29.58 in2.5 miWSW (240°)9.2 mphSnowLight Snow
6:35 AM10.4 °F8.6 °F92 %29.58 in3.0 miSW (230°)9.2 mphSnowLight Snow
6:55 AM10.4 °F8.6 °F92 %29.58 in2.5 miWSW (240°)5.8 mphSnowLight Snow
7:15 AM10.4 °F8.6 °F92 %29.59 in1.5 miSW (230°)4.6 mphSnowLight Snow
7:35 AM10.4 °F8.6 °F92 %29.59 in2.0 miSW (230°)4.6 mphSnowLight Snow
7:55 AM10.4 °F8.6 °F92 %29.60 in1.0 miSW (230°)3.5 mphSnowLight Snow
8:15 AM12.2 °F8.6 °F85 %29.60 in1.0 miSW (230°)3.5 mphSnowLight Snow
8:35 AM12.2 °F8.6 °F85 %29.60 in1.0 miWSW (240°)4.6 mphSnowLight Snow
8:55 AM12.2 °F8.6 °F85 %29.61 in2.5 miWSW (250°)5.8 mphSnowLight Snow
9:15 AM12.2 °F8.6 °F85 %29.61 in4.0 miWest (260°)3.5 mphSnowLight Snow
9:35 AM14.0 °F10.4 °F86 %29.62 in2.0 miWest (260°)3.5 mphSnowLight Snow
9:55 AM14.0 °F10.4 °F86 %29.62 in1.8 miWest (260°)3.5 mphSnowLight Snow
10:15 AM14.0 °F10.4 °F86 %29.63 in4.0 miWest (280°)8.1 mphSnowLight Snow
10:35 AM15.8 °F10.4 °F79 %29.63 in5.0 miWNW (300°)6.9 mphSnowLight Snow
10:55 AM17.6 °F10.4 °F73 %29.65 in5.0 miNNW (340°)9.2 mphSnowLight Snow
11:15 AM17.6 °F10.4 °F73 %29.65 in3.0 miNNW (330°)10.4 mphSnowLight Snow
11:35 AM17.6 °F10.4 °F73 %29.67 in4.0 miNW (310°)11.5 mphSnowLight Snow
11:55 AM17.6 °F10.4 °F73 %29.67 in4.0 miNorth (350°)10.4 mphSnowLight Snow
12:15 PM17.6 °F10.4 °F73 %29.68 in5.0 miNNW (330°)11.5 mph17.3 mphSnowLight Snow
12:35 PM19.4 °F10.4 °F68 %29.68 in7.0 miNW (320°)8.1 mphSnowLight Snow
12:55 PM19.4 °F10.4 °F68 %29.69 in7.0 miNW (310°)11.5 mphSnowLight Snow
1:15 PM19.4 °F12.2 °F74 %29.70 in3.0 miNW (320°)10.4 mphSnowLight Snow
1:35 PM19.4 °F12.2 °F74 %29.71 in3.0 miNNW (330°)9.2 mphSnowLight Snow
1:55 PM19.4 °F12.2 °F74 %29.72 in2.5 miNNW (330°)9.2 mphSnowLight Snow
2:15 PM19.4 °F12.2 °F74 %29.73 in3.0 miNNW (330°)9.2 mphSnowLight Snow
2:35 PM19.4 °F12.2 °F74 %29.74 in4.0 miNNW (330°)10.4 mphSnowLight Snow
2:55 PM19.4 °F12.2 °F74 %29.75 in4.0 miNNW (330°)12.7 mphSnowLight Snow
3:15 PM19.4 °F12.2 °F74 %29.76 in3.0 miNNW (340°)10.4 mphSnowLight Snow
3:35 PM19.4 °F12.2 °F74 %29.78 in3.0 miNNW (340°)10.4 mphSnowLight Snow
3:55 PM19.4 °F12.2 °F74 %29.79 in3.0 miNNW (340°)8.1 mphSnowLight Snow
4:15 PM17.6 °F10.4 °F73 %29.80 in10.0 miNNW (340°)11.5 mph18.4 mphSnowLight Snow
4:35 PM17.6 °F10.4 °F73 %29.81 in7.0 miNNW (340°)9.2 mphSnowLight Snow
4:55 PM17.6 °F10.4 °F73 %29.82 in3.0 miNNW (330°)8.1 mphSnowLight Snow
5:15 PM17.6 °F12.2 °F79 %29.83 in4.0 miNNW (330°)8.1 mphSnowLight Snow
5:35 PM17.6 °F8.6 °F68 %29.84 in10.0 miNorth (350°)8.1 mphOvercast
5:55 PM15.8 °F8.6 °F73 %29.85 in7.0 miNNW (330°)6.9 mphSnowLight Snow
6:15 PM14.0 °F8.6 °F79 %29.88 in10.0 miNNW (330°)10.4 mphSnowLight Snow
6:35 PM14.0 °F6.8 °F73 %29.88 in10.0 miNW (310°)5.8 mphSnowLight Snow
6:55 PM12.2 °F6.8 °F79 %29.88 in10.0 miWNW (290°)4.6 mphSnowLight Snow
7:15 PM6.8 °F1.4 °F79 %29.90 in10.0 miWest (260°)5.8 mphClear
7:35 PM6.8 °F3.2 °F85 %29.90 in10.0 miWSW (250°)4.6 mphClear
7:55 PM3.2 °F1.4 °F92 %29.91 in10.0 miWSW (250°)5.8 mphClear
8:15 PM3.2 °F-0.4 °F85 %29.91 in10.0 miWSW (250°)5.8 mphClear
8:35 PM1.4 °F-2.2 °F85 %29.92 in10.0 miWest (260°)4.6 mphClear
8:55 PM1.4 °F-4.0 °F78 %29.92 in10.0 miWest (260°)4.6 mphClear
9:15 PM1.4 °F-2.2 °F85 %29.93 in10.0 miWest (280°)3.5 mphClear
9:35 PM1.4 °F-4.0 °F78 %29.94 in10.0 miWSW (240°)4.6 mphClear
9:55 PM-2.2 °F-5.8 °F85 %29.95 in10.0 miWest (260°)3.5 mphClear
10:15 PM-0.4 °F-5.8 °F78 %29.95 in10.0 miCalmClear
10:35 PM-0.4 °F-4.0 °F85 %29.95 in10.0 miCalmClear
10:55 PM-0.4 °F-5.8 °F78 %29.95 in10.0 miCalmClear
11:15 PM-2.2 °F-5.8 °F85 %29.97 in10.0 miCalmClear
11:35 PM-2.2 °F-5.8 °F85 %29.98 in10.0 miCalmMostly Cloudy
11:55 PM-0.4 °F-4.0 °F85 %29.98 in10.0 miCalmOvercast
Hourly data recorded from KEGV, located miles away from Eagle River, Wisconsin







STORIES FROM OUR PARTNERS